Location: Notre Dame Regional High School Observatory
(37.3056°N, 89.6097°W)
Time: 20:56:17
(UTC-05:00)

Okean-O - Visible Passes

Search period start: 25 September 2016 00:00
Search period end: 05 October 2016 00:00
Orbit: 640 x 641 km, 98.2° (Epoch: 25 September)

Date Brightness Start Highest point End Pass type
(mag) Time Alt. Az. Time Alt. Az. Time Alt. Az.
25 Sep 5.4 04:15:08 10° NE 04:17:48 16° E 04:20:28 10° SE visible
25 Sep 3.0 05:50:16 10° N 05:54:27 41° WNW 05:58:37 10° SW visible
26 Sep 4.5 04:37:45 10° NE 04:41:35 28° E 04:45:24 10° SSE visible
26 Sep 3.8 06:14:24 10° NNW 06:17:56 24° WNW 06:21:26 10° WSW visible
27 Sep 3.4 05:00:57 10° NNE 05:05:18 52° E 05:09:37 10° S visible
28 Sep 2.5 05:24:29 10° N 05:28:56 83° WNW 05:33:22 10° SSW visible
29 Sep 5.5 04:13:19 10° ENE 04:15:48 15° E 04:18:17 10° SE visible
29 Sep 2.9 05:48:16 10° N 05:52:30 44° WNW 05:56:42 10° SW visible
30 Sep 4.6 04:35:51 10° NE 04:39:36 26° E 04:43:20 10° SSE visible
30 Sep 3.7 06:12:22 10° NNW 06:15:58 25° WNW 06:19:34 10° WSW visible
01 Oct 3.5 04:59:01 10° NNE 05:03:19 49° E 05:07:36 10° S visible
02 Oct 2.5 05:22:30 10° NNE 05:26:58 88° WNW 05:31:24 10° SSW visible
03 Oct 5.6 04:11:32 10° ENE 04:13:48 14° E 04:16:05 10° ESE visible
03 Oct 2.9 05:46:16 10° N 05:50:31 47° WNW 05:54:46 10° SW visible
04 Oct 4.7 04:33:56 10° NE 04:37:37 25° E 04:41:15 10° SSE visible
04 Oct 3.6 06:10:19 10° NNW 06:14:00 26° WNW 06:17:42 10° SW visible
